UWE-4

Last updated on Sun Jun 21 2026 00:03:20 GMT+0000 (Coordinated Universal Time)

1 43880U 18111E 26170.73909040 .00028000 00000+0 56934-3 0 9992 2 43880 97.5852 99.2477 0005067 330.7950 29.3015 15.46259003411173
UTC large
Height (km)
Speed (km/s)
/
Latitude / Longitude
Inclination (degrees)
Orbital Period (minutes)
Azimuth
Elevation
Range (km)
Doppler Factor

Next 0 passes for location: London (51.5072 / 0.1276)

No passes found over London.
UWE-4